Weather History for KLKR - November, 2013

Change the Weather History Date:

Saturday, November 23, 2013

  Actual Average (KUZA) Record (KUZA)
Temperature  
Mean Temperature 54 °F -  
Max Temperature 62 °F 59 °F 76 °F (1979)
Min Temperature 44 °F 39 °F 21 °F (1956)
Degree Days  
Heating Degree Days 11    
Growing Degree Days 4 (Base 50)    
Moisture  
Dew Point 48 °F    
Average Humidity 76    
Maximum Humidity 100    
Minimum Humidity 33    
Precipitation  
Precipitation 0.01 in - - ()
Sea Level Pressure  
Sea Level Pressure 30.12 in    
Wind  
Wind Speed 3 mph (NNW)    
Max Wind Speed 12 mph    
Max Gust Speed 16 mph    
Visibility 7 miles    
Events Rain    
Averages and records for this station are not official NWS values.
T = Trace of Precipitation, MM = Missing Value Source: NWS Daily Summary

Daily Weather History Graph

Daily Weather History Graph

Search for Another Location

Airport or City:

Trip Planner

Search our weather history database for the weather conditions in past years. The results will help you decide how hot, cold, wet, or windy it might be!

Date:

Astronomy

Nov. 23, 2013 Rise Set
Actual Time 7:05 AM EST 5:14 PM EST
Civil Twilight 6:37 AM EST 5:41 PM EST
Nautical Twilight 6:07 AM EST 6:12 PM EST
Astronomical Twilight 5:36 AM EST 6:42 PM EST
Moon 10:36 PM EST (11/23) 11:25 AM EST (11/23)
Length of Visible Light 11h 03m
Length of Day
10h 09m
Waning Gibbous, 70% of the Moon is Illuminated
Nov 23
Waning Gibbous
Nov 25
Last Quarter
Dec 2
New
Dec 9
First Quarter
Dec 17
Full

Hourly Weather History & Observations

Time (EST) Temp. Windchill Dew Point Humidity Pressure Visibility Wind Dir Wind Speed Gust Speed Precip Events Conditions
12:15 AM 59.0 °F - 59.0 °F 100% 30.14 in 10.0 mi Calm Calm - N/A   Overcast
12:35 AM 59.0 °F - 59.0 °F 100% 30.13 in 5.0 mi Calm Calm - N/A Rain Light Rain
12:55 AM 59.0 °F - 59.0 °F 100% 30.13 in 4.0 mi Calm Calm - N/A Rain Light Rain
1:15 AM 59.0 °F - 59.0 °F 100% 30.12 in 5.0 mi Calm Calm - N/A   Overcast
1:35 AM 59.0 °F - 59.0 °F 100% 30.13 in 5.0 mi Calm Calm - N/A Rain Light Rain
1:55 AM 59.0 °F - 59.0 °F 100% 30.13 in 5.0 mi Calm Calm - N/A Rain Light Rain
2:15 AM 59.0 °F - 59.0 °F 100% 30.13 in 5.0 mi WSW 3.5 mph - N/A   Overcast
2:35 AM 59.0 °F - 59.0 °F 100% 30.12 in 4.0 mi Calm Calm - N/A   Overcast
2:55 AM 59.0 °F - 59.0 °F 100% 30.12 in 1.8 mi West 3.5 mph - N/A Rain Light Rain
3:15 AM 59.0 °F - 59.0 °F 100% 30.12 in 1.2 mi West 3.5 mph - N/A Rain Light Rain
3:35 AM 59.0 °F - 59.0 °F 100% 30.12 in 1.8 mi WNW 4.6 mph - 0.01 in Rain Light Rain
3:55 AM 59.0 °F - 59.0 °F 100% 30.11 in 1.8 mi Calm Calm - 0.01 in Rain Light Rain
4:15 AM 59.0 °F - 59.0 °F 100% 30.11 in 3.0 mi Calm Calm - N/A   Overcast
4:35 AM 59.0 °F - 59.0 °F 100% 30.10 in 2.5 mi Calm Calm - N/A   Overcast
4:55 AM 59.0 °F - 59.0 °F 100% 30.10 in 3.0 mi Calm Calm - N/A   Overcast
5:15 AM 59.0 °F - 59.0 °F 100% 30.09 in 3.0 mi Calm Calm - N/A   Overcast
5:35 AM 59.0 °F - 59.0 °F 100% 30.10 in 2.0 mi Calm Calm - N/A   Overcast
5:55 AM 59.0 °F - 59.0 °F 100% 30.09 in 1.8 mi Calm Calm - N/A   Overcast
6:15 AM 59.0 °F - 59.0 °F 100% 30.09 in 3.0 mi Calm Calm - N/A   Overcast
6:35 AM 59.0 °F - 59.0 °F 100% 30.09 in 2.5 mi Calm Calm - N/A   Overcast
6:55 AM 59.0 °F - 59.0 °F 100% 30.10 in 2.5 mi WSW 3.5 mph - N/A   Overcast
7:15 AM 59.0 °F - 59.0 °F 100% 30.11 in 2.5 mi WNW 4.6 mph - N/A   Overcast
7:35 AM 59.0 °F - 59.0 °F 100% 30.11 in 2.0 mi Calm Calm - N/A   Overcast
7:55 AM 59.0 °F - 59.0 °F 100% 30.11 in 2.5 mi Calm Calm - N/A   Overcast
8:15 AM 59.0 °F - 59.0 °F 100% 30.11 in 2.5 mi NW 3.5 mph - N/A   Overcast
8:35 AM 59.0 °F - 59.0 °F 100% 30.12 in 2.5 mi Calm Calm - N/A   Overcast
8:55 AM 59.0 °F - 59.0 °F 100% 30.13 in 2.5 mi North 5.8 mph - N/A   Overcast
9:15 AM 60.8 °F - 60.8 °F 100% 30.13 in 3.0 mi North 3.5 mph - N/A   Mostly Cloudy
9:35 AM 60.8 °F - 60.8 °F 100% 30.13 in 5.0 mi North 5.8 mph - N/A   Mostly Cloudy
9:55 AM 60.8 °F - 60.8 °F 100% 30.14 in 8.0 mi NNE 6.9 mph - N/A   Overcast
10:15 AM 60.8 °F - 60.8 °F 100% 30.14 in 9.0 mi NNE 8.1 mph - N/A   Overcast
10:35 AM 62.6 °F - 62.6 °F 100% 30.13 in 9.0 mi NE 3.5 mph - N/A   Mostly Cloudy
10:55 AM 62.6 °F - 57.2 °F 82% 30.12 in 10.0 mi NNE 10.4 mph - N/A   Mostly Cloudy
11:15 AM 62.6 °F - 57.2 °F 82% 30.13 in 10.0 mi NNE 10.4 mph - N/A   Overcast
11:35 AM 60.8 °F - 55.4 °F 82% 30.13 in 10.0 mi NNE 9.2 mph - N/A   Overcast
11:55 AM 62.6 °F - 55.4 °F 77% 30.10 in 10.0 mi NE 5.8 mph - N/A   Overcast
12:15 PM 62.6 °F - 55.4 °F 77% 30.10 in 10.0 mi NNE 11.5 mph - N/A   Overcast
12:35 PM 62.6 °F - 51.8 °F 68% 30.09 in 10.0 mi NNE 5.8 mph - N/A   Overcast
12:55 PM 62.6 °F - 51.8 °F 68% 30.09 in 10.0 mi North 6.9 mph - N/A   Overcast
1:15 PM 60.8 °F - 51.8 °F 72% 30.10 in 10.0 mi NNW 6.9 mph - N/A   Overcast
1:35 PM 60.8 °F - 50.0 °F 68% 30.09 in 10.0 mi North 8.1 mph - N/A   Overcast
1:55 PM 59.0 °F - 50.0 °F 72% 30.08 in 10.0 mi North 4.6 mph - N/A   Overcast
2:15 PM 60.8 °F - 48.2 °F 63% 30.07 in 10.0 mi North 5.8 mph - N/A   Overcast
2:35 PM 60.8 °F - 48.2 °F 63% 30.07 in 10.0 mi NNW 8.1 mph - N/A   Overcast
2:55 PM 59.0 °F - 48.2 °F 67% 30.07 in 10.0 mi North 6.9 mph - N/A   Overcast
3:15 PM 59.0 °F - 48.2 °F 67% 30.07 in 10.0 mi NNW 3.5 mph - N/A   Overcast
3:35 PM 59.0 °F - 48.2 °F 67% 30.07 in 10.0 mi North 3.5 mph - N/A   Overcast
3:55 PM 59.0 °F - 48.2 °F 67% 30.08 in 10.0 mi Calm Calm - N/A   Overcast
4:15 PM 59.0 °F - 50.0 °F 72% 30.08 in 10.0 mi NNW 3.5 mph - N/A   Overcast
4:35 PM 59.0 °F - 48.2 °F 67% 30.08 in 10.0 mi NNW 5.8 mph - N/A   Overcast
4:55 PM 59.0 °F - 44.6 °F 59% 30.08 in 10.0 mi NNW 4.6 mph - N/A   Mostly Cloudy
5:15 PM 59.0 °F - 44.6 °F 59% 30.09 in 10.0 mi NNW 3.5 mph - N/A   Scattered Clouds
5:35 PM 57.2 °F - 42.8 °F 59% 30.09 in 10.0 mi NNW 4.6 mph - N/A   Partly Cloudy
5:55 PM 55.4 °F - 41.0 °F 58% 30.10 in 10.0 mi Calm Calm - N/A   Partly Cloudy
6:15 PM 55.4 °F - 39.2 °F 54% 30.10 in 10.0 mi NNW 5.8 mph - N/A   Mostly Cloudy
6:35 PM 57.2 °F - 35.6 °F 44% 30.11 in 10.0 mi NNW 5.8 mph - N/A   Overcast
6:55 PM 57.2 °F - 32.0 °F 38% 30.12 in 10.0 mi NNW 6.9 mph - N/A   Mostly Cloudy
7:15 PM 55.4 °F - 30.2 °F 38% 30.13 in 10.0 mi North 8.1 mph - N/A   Partly Cloudy
7:35 PM 55.4 °F - 28.4 °F 36% 30.13 in 10.0 mi NNW 9.2 mph - N/A   Clear
7:55 PM 53.6 °F - 28.4 °F 38% 30.14 in 10.0 mi North 8.1 mph - N/A   Clear
8:15 PM 53.6 °F - 24.8 °F 33% 30.15 in 9.0 mi North 9.2 mph - N/A   Clear
8:35 PM 51.8 °F - 24.8 °F 35% 30.15 in 10.0 mi North 8.1 mph - N/A   Clear
8:55 PM 50.0 °F - 26.6 °F 40% 30.15 in 10.0 mi North 9.2 mph 16.1 mph N/A   Clear
9:15 PM 50.0 °F - 24.8 °F 37% 30.15 in 10.0 mi North 8.1 mph - N/A   Clear
9:35 PM 50.0 °F - 24.8 °F 37% 30.16 in 10.0 mi North 5.8 mph - N/A   Clear
9:55 PM 48.2 °F - 26.6 °F 43% 30.16 in 10.0 mi North 5.8 mph - N/A   Clear
10:15 PM 48.2 °F - 26.6 °F 43% 30.17 in 10.0 mi North 8.1 mph - N/A   Clear
10:35 PM 46.4 °F 43.5 °F 24.8 °F 43% 30.17 in 10.0 mi North 5.8 mph - N/A   Clear
10:55 PM 46.4 °F 42.9 °F 23.0 °F 40% 30.17 in 10.0 mi North 6.9 mph - N/A   Clear
11:15 PM 46.4 °F 43.5 °F 24.8 °F 43% 30.18 in 10.0 mi North 5.8 mph - N/A   Clear
11:35 PM 46.4 °F 45.2 °F 23.0 °F 40% 30.19 in 10.0 mi NW 3.5 mph - N/A   Clear
11:55 PM 44.6 °F 42.2 °F 21.2 °F 39% 30.19 in 10.0 mi NW 4.6 mph - N/A   Clear